Location: Unspecified
(34.1750°S, 150.8048°E)
Time: 18:32:12
(UTC+11:00)

ISS - Pass Details

Date: 15 October 2024
Orbit: 407 x 420 km, 51.6° (Epoch: 02 November)

Event Time Altitude Azimuth Distance (km) Brightness Sun altitude
Rises 20:04:28 0° 274° (W) 2,392 1.4 -11.6°
Reaches altitude 10° 20:07:08 10° 252° (WSW) 1,533 0.6 -12.1°
Maximum altitude 20:09:26 17° 210° (SSW) 1,194 -0.8 -12.5°
Drops below altitude 10° 20:11:45 10° 168° (SSE) 1,542 -0.8 -13.0°
Sets 20:14:27 0° 146° (SSE) 2,414 0.0 -13.5°
